EW7305 Weather Reports


Display with metric or nautical units.
time (UTC)temp
F
wind
direction
speed
MPH
gust
MPH
rain 1hr
in
rain 24hr
in
rain mn
in
humidity
%
barometer
mb
20200703110334 71 252 2.0 6.0 0.00 0.00 0.00 68 1016.3
20200703105823 71 240 3.0 6.0 0.00 0.00 0.00 69 1016.3
20200703105330 71 260 2.0 3.0 0.00 0.00 0.00 69 1016.4
20200703104818 71 230 2.0 3.0 0.00 0.00 0.00 69 1016.4
20200703104327 71 245 2.0 4.0 0.00 0.00 0.00 69 1016.4
20200703103815 71 243 2.0 4.0 0.00 0.00 0.00 69 1016.4
20200703103323 71 252 2.0 4.0 0.00 0.00 0.00 69 1016.3
20200703102830 71 236 2.0 4.0 0.00 0.00 0.00 69 1016.3
20200703102322 70 256 2.0 4.0 0.00 0.00 0.00 70 1016.3
20200703101830 70 238 2.0 3.0 0.00 0.00 0.00 71 1016.3
20200703101318 70 248 1.0 2.0 0.00 0.00 0.00 72 1016.4
20200703100825 70 240 1.0 3.0 0.00 0.00 0.00 72 1016.4
20200703100333 69 248 2.0 3.0 0.00 0.00 0.00 73 1016.4
20200703095822 69 247 1.0 3.0 0.00 0.00 0.00 75 1016.4
20200703095329 69 243 0.0 2.0 0.00 0.00 0.00 75 1016.2
20200703094816 68 234 0.0 1.0 0.00 0.00 0.00 76 1016.2
20200703094325 68 235 0.0 1.0 0.00 0.00 0.00 76 1016.2
20200703093817 68 233 0.0 1.0 0.00 0.00 0.00 77 1016.2
20200703093325 68 233 0.0 1.0 0.00 0.00 0.00 77 1016.2
20200703092833 68 233 0.0 1.0 0.00 0.00 0.00 77 1016.1
20200703092320 68 233 0.0 1.0 0.00 0.00 0.00 77 1016.2
20200703091315 68 233 0.0 2.0 0.00 0.00 0.00 77 1016.1
20200703090824 68 230 1.0 1.0 0.00 0.00 0.00 77 1016.0
20200703090331 68 229 1.0 2.0 0.00 0.00 0.00 77 1016.0
20200703085820 68 243 1.0 1.0 0.00 0.00 0.00 77 1015.9
20200703085332 68 228 1.0 1.0 0.00 0.00 0.00 77 1015.9
20200703084819 68 231 1.0 1.0 0.00 0.00 0.00 78 1016.0
20200703084329 68 231 0.0 1.0 0.00 0.00 0.00 78 1015.9
20200703083816 68 231 0.0 1.0 0.00 0.00 0.00 77 1015.9
20200703083325 68 231 0.0 2.0 0.00 0.00 0.00 77 1015.9
20200703082832 68 231 1.0 2.0 0.00 0.00 0.00 78 1015.9
20200703082319 68 241 0.0 1.0 0.00 0.00 0.00 78 1015.9
20200703081827 68 241 0.0 0.0 0.00 0.00 0.00 78 1015.9
20200703081335 68 241 0.0 1.0 0.00 0.00 0.00 77 1015.8
20200703080827 68 241 0.0 1.0 0.00 0.00 0.00 77 1015.9
20200703080334 68 241 0.0 1.0 0.00 0.00 0.00 76 1016.0
20200703075823 68 241 0.0 1.0 0.00 0.00 0.00 77 1016.1
20200703075330 68 241 0.0 1.0 0.00 0.00 0.00 76 1016.1
20200703074818 69 241 0.0 1.0 0.00 0.00 0.00 76 1016.1
20200703074326 69 241 0.0 1.0 0.00 0.00 0.00 76 1016.1
20200703073833 69 241 0.0 1.0 0.00 0.00 0.00 75 1016.0
20200703073321 69 241 0.0 1.0 0.00 0.00 0.00 75 1016.0
20200703072830 70 241 0.0 1.0 0.00 0.00 0.00 74 1015.9
20200703072320 70 241 0.0 2.0 0.00 0.00 0.00 73 1015.9
20200703071828 70 253 1.0 2.0 0.00 0.00 0.00 73 1016.1
20200703071317 70 244 1.0 2.0 0.00 0.00 0.00 72 1016.1
20200703070825 70 235 1.0 2.0 0.00 0.00 0.00 72 1016.1
20200703070333 70 239 1.0 2.0 0.00 0.00 0.00 73 1016.1
20200703065821 70 232 0.0 1.0 0.00 0.00 0.00 73 1016.1
20200703065329 70 232 0.0 1.0 0.00 0.00 0.00 73 1016.2
20200703064816 70 279 0.0 1.0 0.00 0.00 0.00 73 1016.1
20200703064324 70 279 0.0 0.0 0.00 0.00 0.00 73 1016.1
20200703063832 70 310 0.0 1.0 0.00 0.00 0.00 73 1016.1
20200703063324 70 310 0.0 1.0 0.00 0.00 0.00 73 1016.1
20200703062832 70 328 0.0 1.0 0.00 0.00 0.00 72 1016.1
20200703062320 71 333 0.0 1.0 0.00 0.00 0.00 71 1016.1
20200703061827 71 334 0.0 1.0 0.00 0.00 0.00 71 1016.1
20200703061315 71 261 0.0 1.0 0.00 0.00 0.00 70 1016.2
20200703060823 72 283 0.0 3.0 0.00 0.00 0.00 70 1016.2
20200703060330 72 316 1.0 3.0 0.00 0.00 0.00 70 1016.2
20200703055817 71 308 1.0 3.0 0.00 0.00 0.00 70 1016.3
20200703055327 71 302 1.0 3.0 0.00 0.00 0.00 71 1016.2
20200703054818 71 295 0.0 2.0 0.00 0.00 0.00 71 1016.2
20200703054327 70 293 0.0 2.0 0.00 0.00 0.00 72 1016.1
20200703053835 70 20 0.0 1.0 0.00 0.00 0.00 72 1016.0
20200703053324 70 252 0.0 0.0 0.00 0.00 0.00 72 1016.1
20200703052833 71 252 0.0 1.0 0.00 0.00 0.00 71 1016.1
20200703052320 71 252 0.0 2.0 0.00 0.00 0.00 71 1016.0
20200703051828 71 231 0.0 2.0 0.00 0.00 0.00 71 1016.0
20200703051316 70 259 0.0 1.0 0.00 0.00 0.00 72 1015.9
20200703050823 70 259 0.0 1.0 0.00 0.00 0.00 71 1016.0
20200703050332 71 259 0.0 1.0 0.00 0.00 0.00 71 1015.9
20200703045819 71 261 0.0 2.0 0.00 0.00 0.00 71 1015.9
20200703045327 71 261 0.0 2.0 0.00 0.00 0.00 71 1016.0
20200703044834 71 323 0.0 3.0 0.00 0.00 0.00 71 1015.9
20200703044324 71 287 0.0 1.0 0.00 0.00 0.00 71 1015.9
20200703043831 71 287 0.0 1.0 0.00 0.00 0.00 71 1015.9
20200703043319 71 283 0.0 1.0 0.00 0.00 0.00 71 1015.9
20200703042826 71 283 0.0 2.0 0.00 0.00 0.00 71 1016.0
20200703042335 71 304 0.0 2.0 0.00 0.00 0.00 70 1016.0
20200703041826 72 265 0.0 2.0 0.00 0.00 0.00 69 1015.9
20200703041334 72 265 0.0 2.0 0.00 0.00 0.00 69 1016.0
20200703040821 72 297 0.0 1.0 0.00 0.00 0.00 69 1016.0
20200703040331 72 299 0.0 1.0 0.00 0.00 0.00 69 1016.0
20200703035818 72 316 0.0 2.0 0.00 0.00 0.00 69 1016.1
20200703035326 72 318 0.0 3.0 0.00 0.00 0.00 69 1016.1
20200703034834 72 300 1.0 3.0 0.00 0.00 0.00 70 1016.2
20200703034322 71 302 0.0 2.0 0.00 0.00 0.00 70 1016.2
20200703033831 71 276 0.0 2.0 0.00 0.00 0.00 70 1016.2
20200703033323 71 251 0.0 2.0 0.00 0.00 0.00 70 1016.2
20200703032830 71 295 0.0 1.0 0.00 0.00 0.00 70 1016.2
20200703032317 72 295 0.0 1.0 0.00 0.00 0.00 69 1016.2
20200703031827 72 292 0.0 2.0 0.00 0.00 0.00 69 1016.2
20200703031335 72 291 0.0 2.0 0.00 0.00 0.00 68 1016.3
20200703030823 72 288 0.0 3.0 0.00 0.00 0.00 68 1016.3
20200703030331 72 294 0.0 1.0 0.00 0.00 0.00 69 1016.3
20200703025818 72 293 0.0 1.0 0.00 0.00 0.00 69 1016.3
20200703025327 72 299 0.0 4.0 0.00 0.00 0.00 68 1016.2
20200703024820 72 324 0.0 4.0 0.00 0.00 0.00 68 1016.3
20200703024328 73 299 0.0 2.0 0.00 0.00 0.00 68 1016.3
20200703023836 73 300 1.0 2.0 0.00 0.00 0.00 68 1016.3
20200703023323 73 295 0.0 2.0 0.00 0.00 0.00 67 1016.3
20200703022831 73 295 1.0 3.0 0.00 0.00 0.00 67 1016.4
20200703022319 73 283 1.0 3.0 0.00 0.00 0.00 67 1016.4
20200703021827 73 5 0.0 2.0 0.00 0.00 0.00 67 1016.4
20200703021315 73 314 0.0 2.0 0.00 0.00 0.00 67 1016.3
20200703020822 73 303 0.0 2.0 0.00 0.00 0.00 67 1016.3
20200703020330 73 302 0.0 2.0 0.00 0.00 0.00 67 1016.1
20200703015823 73 297 0.0 2.0 0.00 0.00 0.00 67 1016.2
20200703015331 73 297 0.0 1.0 0.00 0.00 0.00 67 1016.1
20200703014819 73 296 0.0 1.0 0.00 0.00 0.00 66 1016.1
20200703014328 73 296 0.0 1.0 0.00 0.00 0.00 66 1016.1
20200703013816 73 240 0.0 1.0 0.00 0.00 0.00 67 1016.0
20200703013324 73 240 0.0 1.0 0.00 0.00 0.00 66 1016.0
20200703012832 74 240 0.0 1.0 0.00 0.00 0.00 66 1016.0
20200703012320 74 240 0.0 1.0 0.00 0.00 0.00 65 1016.0
20200703011829 74 223 0.0 2.0 0.00 0.00 0.00 64 1016.0
20200703011320 75 296 0.0 2.0 0.00 0.00 0.00 64 1016.0
20200703010829 75 299 0.0 2.0 0.00 0.00 0.00 63 1015.9
20200703010316 75 325 0.0 2.0 0.00 0.00 0.00 63 1015.9
20200703005824 76 247 0.0 2.0 0.00 0.00 0.00 62 1015.9
20200703005332 76 309 0.0 2.0 0.00 0.00 0.00 61 1016.0
20200703004820 76 312 1.0 2.0 0.00 0.00 0.00 61 1015.9
20200703004328 77 306 0.0 2.0 0.00 0.00 0.00 60 1015.9
20200703003816 78 292 1.0 2.0 0.00 0.00 0.00 58 1015.9
20200703003325 79 248 0.0 3.0 0.00 0.00 0.00 57 1015.9
20200703002836 79 282 0.0 3.0 0.00 0.00 0.00 56 1015.9
20200703002322 80 293 1.0 2.0 0.00 0.00 0.00 56 1015.9
20200703001830 80 286 0.0 2.0 0.00 0.00 0.00 55 1015.9
20200703001318 80 317 1.0 3.0 0.00 0.00 0.00 55 1015.9
20200703000825 80 278 1.0 3.0 0.00 0.00 0.00 55 1016.0
20200703000335 81 326 1.0 3.0 0.00 0.00 0.00 53 1015.9
20200702235821 81 288 1.0 2.0 0.00 0.00 0.00 53 1015.9
20200702235330 81 346 0.0 4.0 0.00 0.00 0.00 52 1016.0
20200702234818 81 302 2.0 4.0 0.00 0.00 0.00 52 1016.0
20200702234330 81 1 1.0 3.0 0.00 0.00 0.00 51 1015.9
20200702233818 81 320 2.0 5.0 0.00 0.00 0.00 51 1015.9
20200702233326 81 309 1.0 6.0 0.00 0.00 0.00 51 1015.9
20200702232834 82 319 1.0 5.0 0.00 0.00 0.00 51 1016.0
20200702232321 82 299 2.0 7.0 0.00 0.00 0.00 49 1016.0
20200702231829 82 359 3.0 7.0 0.00 0.00 0.00 48 1016.0
20200702231317 82 303 2.0 6.0 0.00 0.00 0.00 50 1016.0
20200702230825 82 321 1.0 6.0 0.00 0.00 0.00 49 1016.0
20200702230332 82 322 2.0 7.0 0.00 0.00 0.00 49 1016.1
20200702225824 82 316 1.0 8.0 0.00 0.00 0.00 49 1016.1
20200702225331 82 333 4.0 8.0 0.00 0.00 0.00 47 1016.1
20200702224819 82 25 3.0 7.0 0.00 0.00 0.00 48 1016.1
20200702224328 82 342 3.0 7.0 0.00 0.00 0.00 49 1016.1
20200702223836 82 300 3.0 7.0 0.00 0.00 0.00 48 1016.1
20200702223322 82 291 2.0 7.0 0.00 0.00 0.00 51 1016.1
20200702222830 82 303 3.0 8.0 0.00 0.00 0.00 51 1016.1
20200702222317 82 337 4.0 8.0 0.00 0.00 0.00 50 1016.2
20200702221323 83 330 1.0 8.0 0.00 0.00 0.00 53 1016.1
20200702220831 82 296 3.0 8.0 0.00 0.00 0.00 50 1016.2
20200702220323 83 341 3.0 7.0 0.00 0.00 0.00 52 1016.3
20200702215832 82 312 3.0 9.0 0.00 0.00 0.00 50 1016.3
20200702215319 82 266 5.0 9.0 0.00 0.00 0.00 49 1016.1
20200702214827 83 293 4.0 7.0 0.00 0.00 0.00 49 1016.2
20200702214315 83 332 4.0 9.0 0.00 0.00 0.00 50 1016.3
20200702213823 83 338 6.0 9.0 0.00 0.00 0.00 48 1016.2
20200702213331 82 35 2.0 8.0 0.00 0.00 0.00 50 1016.2
20200702212820 83 340 3.0 10.0 0.00 0.00 0.00 47 1016.2
20200702212328 82 328 5.0 10.0 0.00 0.00 0.00 48 1016.3
20200702211819 82 336 5.0 8.0 0.00 0.00 0.00 46 1016.4
20200702211327 82 319 4.0 10.0 0.00 0.00 0.00 46 1016.3
20200702210816 83 321 6.0 10.0 0.00 0.00 0.00 46 1016.5
20200702210324 83 335 5.0 8.0 0.00 0.00 0.00 46 1016.4
20200702205831 83 24 4.0 9.0 0.00 0.00 0.00 48 1016.4
20200702205319 83 326 4.0 9.0 0.00 0.00 0.00 48 1016.3
20200702204827 83 335 4.0 13.0 0.00 0.00 0.00 47 1016.5
20200702204316 84 12 3.0 7.0 0.00 0.00 0.00 50 1016.5
20200702203825 83 313 4.0 8.0 0.00 0.00 0.00 48 1016.5
20200702203316 83 318 4.0 12.0 0.00 0.00 0.00 51 1016.6
20200702202825 83 319 7.0 12.0 0.00 0.00 0.00 46 1016.6
20200702202335 83 11 3.0 9.0 0.00 0.00 0.00 52 1016.5
20200702201822 83 303 1.0 10.0 0.00 0.00 0.00 49 1016.6
20200702201330 83 63 4.0 10.0 0.00 0.00 0.00 49 1016.6
20200702200817 83 25 6.0 8.0 0.00 0.00 0.00 47 1016.6
20200702200325 83 342 4.0 11.0 0.00 0.00 0.00 48 1016.6
20200702195834 83 316 6.0 11.0 0.00 0.00 0.00 47 1016.7
20200702195321 83 319 5.0 9.0 0.00 0.00 0.00 47 1016.7
20200702194829 83 34 2.0 8.0 0.00 0.00 0.00 49 1016.7
20200702194322 83 311 4.0 11.0 0.00 0.00 0.00 50 1016.8
20200702193830 83 304 5.0 11.0 0.00 0.00 0.00 48 1016.8
20200702193317 83 8 3.0 11.0 0.00 0.00 0.00 50 1016.9
20200702192827 83 324 5.0 11.0 0.00 0.00 0.00 48 1016.9
20200702192315 83 17 7.0 11.0 0.00 0.00 0.00 48 1016.8
20200702191825 83 347 7.0 11.0 0.00 0.00 0.00 48 1016.8
20200702191333 83 357 4.0 9.0 0.00 0.00 0.00 49 1016.8
20200702190820 84 311 6.0 10.0 0.00 0.00 0.00 47 1016.8
20200702190328 83 13 5.0 10.0 0.00 0.00 0.00 46 1016.9
20200702185821 83 8 3.0 10.0 0.00 0.00 0.00 49 1016.8
20200702185328 83 342 3.0 11.0 0.00 0.00 0.00 51 1016.8
20200702184816 83 2 6.0 11.0 0.00 0.00 0.00 49 1016.8
20200702184325 83 27 4.0 14.0 0.00 0.00 0.00 48 1016.8
20200702183832 83 47 7.0 14.0 0.00 0.00 0.00 49 1016.9
20200702183320 83 99 7.0 13.0 0.00 0.00 0.00 49 1017.0
20200702182827 83 317 5.0 9.0 0.00 0.00 0.00 50 1017.0
20200702182315 83 309 6.0 11.0 0.00 0.00 0.00 50 1017.1
20200702181824 83 332 5.0 12.0 0.00 0.00 0.00 50 1017.0
20200702181316 83 360 6.0 12.0 0.00 0.00 0.00 54 1017.0
20200702180825 83 324 8.0 12.0 0.00 0.00 0.00 51 1017.1
20200702180334 83 52 6.0 11.0 0.00 0.00 0.00 49 1017.0
20200702175821 83 309 5.0 10.0 0.00 0.00 0.00 52 1017.0
20200702175330 82 56 6.0 11.0 0.00 0.00 0.00 50 1017.1
20200702174819 82 354 6.0 10.0 0.00 0.00 0.00 52 1017.1
20200702174327 82 340 6.0 10.0 0.00 0.00 0.00 50 1017.1
20200702173816 82 10 7.0 13.0 0.00 0.00 0.00 51 1017.2
20200702173325 82 349 8.0 14.0 0.00 0.00 0.00 52 1017.2
20200702172816 82 335 5.0 10.0 0.00 0.00 0.00 51 1017.2
20200702172325 83 337 6.0 10.0 0.00 0.00 0.00 51 1017.2
20200702171834 82 298 5.0 10.0 0.00 0.00 0.00 52 1017.2
20200702171321 82 340 5.0 11.0 0.00 0.00 0.00 49 1017.3
20200702170830 82 345 8.0 11.0 0.00 0.00 0.00 49 1017.4
20200702170317 82 34 7.0 15.0 0.00 0.00 0.00 50 1017.3
20200702165825 82 5 7.0 15.0 0.00 0.00 0.00 53 1017.5
20200702165333 82 309 10.0 14.0 0.00 0.00 0.00 50 1017.4
20200702164821 82 21 5.0 10.0 0.00 0.00 0.00 51 1017.4
20200702164334 82 330 5.0 11.0 0.00 0.00 0.00 51 1017.3
20200702163821 82 14 7.0 11.0 0.00 0.00 0.00 52 1017.4
20200702163329 82 18 4.0 10.0 0.00 0.00 0.00 53 1017.3
20200702162817 82 9 5.0 10.0 0.00 0.00 0.00 54 1017.4
20200702162326 82 330 6.0 12.0 0.00 0.00 0.00 52 1017.4
20200702161834 81 17 6.0 13.0 0.00 0.00 0.00 52 1017.4
20200702161321 81 320 8.0 13.0 0.00 0.00 0.00 51 1017.5
20200702160829 81 302 8.0 12.0 0.00 0.00 0.00 51 1017.5
20200702160318 81 28 8.0 12.0 0.00 0.00 0.00 51 1017.5
20200702155830 81 3 6.0 13.0 0.00 0.00 0.00 53 1017.5
20200702155318 81 6 7.0 11.0 0.00 0.00 0.00 56 1017.5
20200702154826 81 307 6.0 11.0 0.00 0.00 0.00 55 1017.4
20200702154335 81 335 7.0 12.0 0.00 0.00 0.00 56 1017.4
20200702153823 81 331 6.0 12.0 0.00 0.00 0.00 59 1017.4
20200702153331 81 342 5.0 10.0 0.00 0.00 0.00 59 1017.5
20200702152819 80 24 4.0 10.0 0.00 0.00 0.00 59 1017.4
20200702152327 80 330 4.0 13.0 0.00 0.00 0.00 57 1017.3
20200702151836 80 28 5.0 11.0 0.00 0.00 0.00 60 1017.3
20200702151328 80 339 7.0 13.0 0.00 0.00 0.00 58 1017.4
20200702150835 80 334 3.0 10.0 0.00 0.00 0.00 60 1017.3
20200702150324 80 13 5.0 10.0 0.00 0.00 0.00 61 1017.3
20200702145832 80 65 4.0 9.0 0.00 0.00 0.00 61 1017.3
20200702145319 79 60 5.0 9.0 0.00 0.00 0.00 62 1017.3
20200702144828 79 338 5.0 12.0 0.00 0.00 0.00 61 1017.3
20200702144316 79 322 7.0 12.0 0.00 0.00 0.00 63 1017.4
20200702143824 79 32 7.0 12.0 0.00 0.00 0.00 62 1017.4
20200702143334 79 37 6.0 10.0 0.00 0.00 0.00 63 1017.3
20200702142826 79 337 5.0 11.0 0.00 0.00 0.00 64 1017.2
20200702142333 79 49 5.0 11.0 0.00 0.00 0.00 63 1017.1
20200702141821 79 30 4.0 8.0 0.00 0.00 0.00 64 1017.1
20200702141328 79 21 3.0 9.0 0.00 0.00 0.00 66 1017.0
20200702140816 78 355 4.0 10.0 0.00 0.00 0.00 64 1017.0
20200702140325 78 348 7.0 10.0 0.00 0.00 0.00 64 1017.1
20200702135835 78 10 4.0 7.0 0.00 0.00 0.00 64 1017.1
20200702135323 79 336 2.0 8.0 0.00 0.00 0.00 67 1017.0
20200702134831 78 342 3.0 8.0 0.00 0.00 0.00 68 1017.1
20200702134322 78 27 2.0 10.0 0.00 0.00 0.00 69 1017.0
20200702133830 77 293 4.0 7.0 0.00 0.00 0.00 69 1017.0
20200702133319 77 1 3.0 8.0 0.00 0.00 0.00 68 1017.0
20200702132827 77 333 4.0 8.0 0.00 0.00 0.00 70 1017.0
20200702132335 77 307 3.0 6.0 0.00 0.00 0.00 72 1017.0
20200702131823 77 33 2.0 6.0 0.00 0.00 0.00 73 1017.0
20200702131330 76 318 3.0 8.0 0.00 0.00 0.00 73 1016.9
20200702130818 76 338 3.0 8.0 0.00 0.00 0.00 73 1016.9
20200702130327 76 300 3.0 7.0 0.00 0.00 0.00 73 1016.8
20200702125820 76 19 3.0 7.0 0.00 0.00 0.00 73 1016.8
20200702125328 75 1 3.0 6.0 0.00 0.00 0.00 73 1016.8
20200702124816 75 335 3.0 6.0 0.00 0.00 0.00 74 1016.9
20200702124324 75 1 4.0 7.0 0.00 0.00 0.00 74 1016.8
20200702123831 74 23 5.0 7.0 0.00 0.00 0.00 74 1016.8
20200702123318 74 3 3.0 7.0 0.00 0.00 0.00 76 1016.7
20200702122829 74 333 4.0 7.0 0.00 0.00 0.00 76 1016.8
20200702122335 73 330 3.0 7.0 0.00 0.00 0.00 77 1016.7
20200702121822 73 323 3.0 7.0 0.00 0.00 0.00 76 1016.7
20200702121330 73 23 3.0 8.0 0.00 0.00 0.00 76 1016.6
20200702120822 73 2 4.0 8.0 0.00 0.00 0.00 76 1016.6
20200702120330 73 342 3.0 8.0 0.00 0.00 0.00 76 1016.6
20200702115819 73 15 4.0 8.0 0.00 0.00 0.00 76 1016.7
20200702115327 73 1 3.0 8.0 0.00 0.00 0.00 76 1016.6
20200702114817 73 338 3.0 7.0 0.00 0.00 0.00 77 1016.6
20200702114324 72 346 4.0 6.0 0.00 0.00 0.00 77 1016.6
20200702113834 72 314 3.0 5.0 0.00 0.00 0.00 78 1016.6
20200702113322 72 324 3.0 6.0 0.00 0.00 0.00 79 1016.4
20200702112830 71 338 3.0 6.0 0.00 0.00 0.00 79 1016.4
20200702112321 71 349 2.0 5.0 0.00 0.00 0.00 80 1016.4
20200702111829 71 316 2.0 5.0 0.00 0.00 0.00 81 1016.4
20200702111317 71 347 2.0 4.0 0.00 0.00 0.00 81 1016.4
20200702110826 70 345 1.0 3.0 0.00 0.00 0.00 82 1016.3